This is the latest recevied weather packets stored in our database for station/object KY0TEQ-13. If no packets are shown the sender has not sent any weather packets the latest 10 day(s).
| Time | Temp. | Humidity | Pressure | Rain* | Wind** | Luminosity | Snow |
|---|---|---|---|---|---|---|---|
| 1777828195 | 15° C | 29% | 1307.3 hPa | 0 mm | - | 638 W/m² | - |
| 1777827891 | 14.44° C | 29% | 1307.3 hPa | 0 mm | - | 626 W/m² | - |
| 1777827588 | 13.89° C | 29% | 1307.4 hPa | 0 mm | - | 673 W/m² | - |
| 1777827286 | 14.44° C | 29% | 1307.4 hPa | 0 mm | - | 623 W/m² | - |
| 1777826981 | 13.89° C | 29% | 1307.6 hPa | 0 mm | - | 561 W/m² | - |
| 1777826679 | 14.44° C | 29% | 1307.7 hPa | 0 mm | - | 559 W/m² | - |
| 1777826375 | 13.89° C | 30% | 1307.3 hPa | 0 mm | - | 561 W/m² | - |
| 1777826072 | 12.78° C | 31% | 1307.8 hPa | 0 mm | - | 524 W/m² | - |
| 1777825769 | 13.89° C | 30% | 1307.6 hPa | 0 mm | - | 549 W/m² | - |
| 1777825467 | 13.33° C | 30% | 1307.8 hPa | 0 mm | - | 586 W/m² | - |
| 1777825164 | 13.33° C | 30% | 1307.9 hPa | 0 mm | - | 568 W/m² | - |
| 1777824860 | 12.78° C | 31% | 1307.6 hPa | 0 mm | - | 485 W/m² | - |
| 1777824557 | 13.33° C | 30% | 1307.8 hPa | 0 mm | - | 568 W/m² | - |
| 1777824254 | 13.33° C | 29% | 1307.8 hPa | 0 mm | - | 579 W/m² | - |
| 1777823949 | 13.33° C | 29% | 1307.7 hPa | 0 mm | - | 503 W/m² | - |
| 1777823646 | 12.78° C | 31% | 1307.6 hPa | 0 mm | - | 509 W/m² | - |
| 1777823343 | 12.22° C | 32% | 1307.7 hPa | 0 mm | - | 506 W/m² | - |
| 1777823041 | 12.78° C | 31% | 1307.7 hPa | 0 mm | - | 488 W/m² | - |
| 1777822739 | 12.22° C | 32% | 1307.8 hPa | 0 mm | - | 457 W/m² | - |
| 1777822436 | 12.22° C | 31% | 1307.9 hPa | 0 mm | - | 471 W/m² | - |
| 1777822134 | 12.78° C | 31% | 1307.9 hPa | 0 mm | - | 452 W/m² | - |
| 1777821831 | 12.22° C | 32% | 1308 hPa | 0 mm | - | 432 W/m² | - |
| 1777821528 | 11.67° C | 32% | 1307.8 hPa | 0 mm | - | 423 W/m² | - |
| 1777821226 | 11.67° C | 33% | 1307.9 hPa | 0 mm | - | 303 W/m² | - |
| 1777820923 | 11.67° C | 32% | 1308 hPa | 0 mm | - | 403 W/m² | - |
* Rain latest hour (hover to see other rain measurements)
** Current wind speed in m/s (hover to see current wind gust speed)